Vorticity
8 12 13 12 11 13 12 9 9 8 10 5 4 7 4 5 24 31 6 9 28 13 -1 -2 -0 7 2 1 7 3 4 6 3 6 5 3 5 4 6 7 3 6 11 11 7 5 5 5 5 4 6 7 10 10 9 7 5 5 5 7 7 6 3 2 3 3 4 4 4 4 5 5 5 5 5 5 5 5 4 3 3 4 4 4 5 6 6 8 10 9 9 10 9 8 8 11 12
6 7 11 11 8 12 15 11 9 4 10 10 3 5 6 5 14 16 5 10 15 4 2 2 -1 -1 -2 2 5 2 2 6 3 5 6 3 4 3 5 7 5 5 9 11 6 5 4 4 5 3 5 6 10 13 11 8 7 6 5 5 4 4 3 3 3 3 3 4 4 4 4 4 5 5 6 6 5 5 3 3 4 5 4 4 5 8 9 10 10 9 9 10 11 9 9 11 12
5 2 7 10 5 10 17 14 10 2 6 12 5 2 4 6 13 13 9 14 12 6 3 1 3 -1 0 2 3 2 1 4 2 4 7 4 4 4 5 5 5 4 9 11 6 6 4 4 4 3 4 4 9 13 13 10 8 7 6 5 4 4 4 4 3 3 3 4 4 4 4 4 4 4 5 5 5 5 5 4 5 5 4 5 8 10 10 8 8 10 10 10 11 11 12 9 9
8 1 2 6 7 9 14 12 11 12 8 9 8 4 4 6 13 13 12 20 17 9 0 2 10 3 1 2 3 2 1 5 1 4 7 4 5 6 5 5 5 4 8 12 8 6 4 5 4 4 4 4 7 10 12 11 10 9 8 7 6 5 5 5 5 5 5 4 4 4 4 4 4 4 4 4 5 5 5 5 5 5 2 5 10 10 9 8 8 11 10 9 10 9 12 10 9
8 5 3 4 8 8 10 10 11 19 14 10 10 5 12 12 9 12 11 14 9 3 3 6 8 1 1 3 5 2 2 7 1 5 6 2 3 5 5 3 5 4 7 12 10 7 5 4 4 4 3 4 6 7 9 9 10 9 9 8 7 7 6 6 6 6 5 5 5 5 5 4 4 4 5 5 5 5 5 5 5 4 2 6 10 9 9 10 10 10 9 9 9 9 12 11 11
9 8 6 8 8 8 8 8 8 16 14 17 17 6 22 19 5 13 13 12 6 3 4 1 4 3 3 4 3 4 5 5 1 4 6 3 3 4 4 2 5 5 6 11 12 9 6 5 4 4 4 4 4 5 6 7 7 7 8 7 7 7 6 6 6 6 6 6 6 6 7 6 6 5 5 4 4 5 5 6 5 4 3 8 8 7 9 10 10 11 9 8 9 11 11 10 12
15 8 5 10 9 8 7 7 5 12 13 18 23 10 15 15 6 10 13 17 8 4 5 -2 3 4 4 6 2 4 6 3 3 5 7 6 4 4 4 3 5 4 5 9 12 12 9 7 6 5 4 5 5 4 4 5 5 5 6 5 6 6 6 6 6 7 7 8 8 9 10 10 10 8 6 5 5 5 6 6 5 4 5 8 7 7 9 9 10 11 9 9 11 11 11 10 12
13 11 5 7 9 8 9 9 2 9 14 12 22 18 12 15 13 7 13 20 5 3 8 0 3 4 4 6 2 4 5 4 6 5 7 7 5 5 4 5 4 4 6 6 10 12 11 9 8 7 6 6 5 5 4 4 4 4 4 4 4 4 5 5 5 6 7 7 7 9 10 11 12 10 10 8 7 6 6 6 4 4 6 8 7 6 8 8 11 11 10 10 11 12 12 11 10
5 14 11 5 9 10 10 11 3 4 12 12 15 19 21 25 16 7 14 14 2 3 7 3 3 3 4 5 3 5 4 5 7 6 6 5 6 5 3 6 5 4 5 5 7 10 12 11 10 9 7 7 6 6 6 5 5 4 4 4 4 4 5 5 6 6 6 6 5 6 8 9 10 10 10 9 8 8 7 5 4 4 6 8 7 7 7 8 11 11 11 9 9 10 9 9 9
-1 5 10 5 11 12 8 9 6 3 8 11 8 13 23 25 16 10 12 11 6 5 5 6 4 1 3 4 4 5 8 8 4 6 7 3 7 5 3 5 5 5 5 5 6 7 10 11 11 11 10 8 7 6 7 7 6 5 5 5 5 6 6 6 7 6 6 6 5 5 5 6 7 8 9 9 8 7 6 4 5 5 6 8 7 7 7 7 11 11 11 9 7 8 7 8 9
5 -3 2 3 10 12 7 6 7 5 7 8 7 14 19 20 24 16 8 10 7 3 5 5 4 4 2 3 5 5 8 11 7 6 5 4 7 4 3 3 3 5 5 4 5 5 6 8 9 10 11 10 7 6 6 6 6 6 6 6 6 7 7 7 7 6 6 6 6 5 6 5 6 8 8 8 8 7 6 4 5 5 6 8 7 8 8 7 10 11 12 10 7 7 8 8 8
17 5 2 3 8 9 6 8 8 6 8 8 7 13 14 18 28 18 8 8 1 3 11 6 5 6 3 4 4 2 6 12 9 4 3 5 6 3 4 4 3 3 5 5 4 4 4 5 6 7 10 10 8 7 6 6 5 6 6 6 6 6 7 7 7 6 6 7 7 7 6 6 6 7 8 7 7 7 5 3 4 4 6 7 7 9 8 7 9 11 11 9 7 6 8 8 9
14 9 7 9 8 7 6 9 11 10 9 10 7 9 11 11 14 11 13 16 6 6 9 7 7 4 3 3 1 6 13 12 5 3 5 5 4 4 5 5 4 2 4 5 4 4 3 4 4 5 6 7 7 6 6 6 6 6 6 7 6 7 7 6 6 6 6 6 7 7 7 7 7 6 5 7 8 8 5 3 4 4 5 6 6 9 8 6 8 10 8 8 8 6 7 7 8
7 5 8 11 7 5 6 8 10 10 8 9 8 8 9 7 9 11 16 21 16 11 6 4 5 3 3 3 4 7 10 7 3 6 6 5 6 6 6 6 5 3 4 4 4 4 4 3 3 4 4 5 5 4 5 5 5 5 5 6 6 7 7 6 6 5 6 6 6 6 6 7 7 6 5 6 7 8 7 5 4 3 6 6 5 8 9 6 6 7 6 7 8 7 7 7 7
7 7 7 8 7 5 9 11 8 6 4 7 7 6 5 5 15 24 23 15 14 14 5 2 3 3 2 2 4 1 2 0 2 11 7 3 6 5 6 6 5 4 5 3 3 4 4 4 3 4 4 4 4 3 4 4 4 4 4 4 5 6 5 6 5 5 5 5 6 5 6 6 6 7 5 5 5 7 8 5 3 4 7 8 5 8 10 5 5 5 5 8 8 6 6 7 7
7 8 7 8 9 6 10 10 7 7 6 8 9 8 8 6 13 31 30 12 11 12 2 4 4 2 2 2 2 -0 4 3 4 9 3 2 3 3 5 3 4 4 5 4 3 4 4 5 4 4 4 3 4 4 4 4 4 3 4 4 3 4 4 5 4 4 5 5 6 5 5 6 6 7 6 5 5 6 7 4 4 6 9 10 4 6 10 6 6 5 4 9 8 6 7 7 6
8 4 6 9 9 8 9 6 6 9 10 9 8 8 10 10 11 25 31 17 16 13 4 7 5 3 3 2 2 0 4 5 7 3 -2 7 5 3 5 2 3 4 4 3 3 4 3 5 4 5 4 3 4 4 4 3 4 4 4 4 3 4 3 3 4 4 4 4 5 5 6 6 6 6 6 7 5 5 6 3 3 6 8 10 6 4 8 7 6 5 4 7 5 6 10 7 6
7 2 4 8 7 8 7 6 7 8 11 9 6 8 8 8 8 14 21 17 20 23 18 13 5 4 3 2 2 -1 5 7 5 4 4 9 3 1 5 3 3 3 4 4 4 4 3 5 5 5 5 4 4 4 4 3 4 4 4 4 4 4 3 3 3 3 3 3 4 4 5 5 6 6 7 7 5 6 7 4 2 4 4 5 7 4 4 6 6 6 5 6 4 5 8 6 5
4 2 4 6 5 7 7 9 10 8 11 10 8 9 6 6 7 10 12 9 14 20 23 24 15 8 4 3 2 0 8 7 1 5 7 4 1 2 3 2 3 2 3 4 6 5 3 4 5 6 6 5 5 5 5 5 5 5 5 5 4 4 4 3 3 3 3 3 3 3 4 4 5 6 7 6 6 6 7 7 4 5 3 -1 5 8 4 3 5 5 4 6 5 3 5 6 5
2 2 4 7 5 5 8 10 9 9 10 7 7 7 7 10 9 10 11 5 5 5 9 26 27 16 11 4 2 4 4 6 6 4 3 2 2 4 2 3 4 3 3 4 5 5 5 5 4 6 7 5 5 6 6 5 5 5 6 5 4 4 3 4 4 4 4 3 3 4 4 4 4 4 5 5 5 7 7 7 5 6 6 -1 1 10 8 3 3 2 3 8 10 7 5 5 4
3 2 3 8 5 5 9 8 5 8 9 9 11 9 7 8 8 10 11 6 5 3 2 24 34 23 21 12 1 2 3 10 15 7 4 3 1 3 4 4 4 4 5 4 3 4 5 5 5 6 7 6 4 6 6 6 6 5 5 5 5 4 4 4 4 4 5 5 4 4 4 5 6 4 4 4 3 5 7 7 7 6 8 4 2 8 8 5 6 4 6 10 9 7 6 5 3
4 1 6 8 4 7 9 6 5 6 9 13 15 13 7 5 11 11 9 8 7 7 2 16 36 31 32 27 6 1 7 9 6 3 5 3 1 5 5 4 4 4 5 5 3 2 4 4 6 6 5 6 4 5 6 5 6 5 5 6 5 5 5 4 4 5 4 4 5 5 5 5 8 6 5 6 3 2 5 6 7 7 8 7 5 7 5 5 7 4 8 10 8 6 6 7 6
5 -0 9 8 4 7 5 4 7 7 8 11 12 13 10 8 14 11 8 10 8 9 5 7 23 26 29 31 15 5 9 9 4 2 4 5 5 6 6 5 4 4 5 7 6 3 3 3 5 5 4 5 4 4 5 5 5 6 6 5 5 5 6 5 4 5 5 5 4 4 5 4 5 5 5 8 6 3 5 7 7 7 7 7 5 6 4 5 5 2 6 6 5 7 3 5 7
5 2 10 6 3 5 3 4 7 6 7 10 10 10 12 11 10 9 9 11 8 9 9 6 10 13 16 22 20 13 10 10 11 8 5 6 7 6 8 6 3 2 3 6 7 5 3 3 4 4 3 3 4 4 4 5 5 5 6 6 6 6 6 6 5 5 6 6 4 4 4 4 3 2 4 7 6 5 6 7 7 5 6 7 7 5 4 4 5 5 6 3 2 8 5 3 6
7 6 5 4 7 3 0 7 7 2 2 6 8 11 15 12 7 8 10 11 12 9 7 9 8 8 9 11 16 15 12 11 10 12 10 6 6 6 7 7 6 4 5 6 5 5 5 4 3 3 3 3 4 5 4 4 4 4 5 6 5 5 6 5 5 5 6 5 4 4 4 6 4 2 4 5 5 5 5 6 5 4 5 6 7 7 5 4 7 5 2 5 5 6 8 5 6
12 8 3 6 4 -2 5 12 7 1 5 9 8 11 15 14 11 9 8 9 12 10 8 8 6 6 7 7 9 8 9 10 7 6 7 7 8 8 7 8 9 7 7 7 4 6 6 2 3 3 3 4 4 5 5 4 4 4 4 5 5 5 6 5 6 5 5 4 4 5 5 7 7 5 6 6 6 6 4 4 3 4 5 7 6 6 7 6 9 4 -3 6 6 1 7 8 7
10 10 11 4 -7 -1 14 13 3 1 8 12 11 9 10 13 14 10 8 10 12 11 9 8 6 5 5 4 4 5 6 9 10 6 5 7 8 7 9 10 8 4 4 7 6 8 9 4 3 4 3 4 5 5 5 4 4 5 5 4 5 5 6 6 6 6 5 4 4 6 5 5 7 9 9 7 6 7 6 5 3 4 4 6 5 4 7 6 7 6 2 9 7 1 7 8 7
8 14 13 -2 -8 1 10 9 -0 -2 -2 6 17 11 5 10 14 13 10 9 9 10 9 7 8 7 6 5 3 3 3 5 8 8 9 8 6 7 8 9 9 7 6 8 9 7 7 7 6 5 3 3 5 6 4 3 5 6 6 4 4 5 6 6 5 6 5 4 4 5 6 6 7 8 9 7 6 7 6 5 5 5 5 5 3 2 4 2 2 7 7 10 6 0 7 8 6
4 6 3 -5 -3 -2 2 6 -1 -1 -5 5 22 10 2 9 11 14 13 11 8 8 10 8 9 9 8 8 7 8 6 6 5 5 6 6 8 9 7 7 9 10 10 8 7 6 4 6 9 7 5 5 3 4 4 3 4 5 5 3 4 5 4 4 4 4 4 5 6 5 5 5 5 7 7 5 5 4 4 4 6 8 8 7 5 2 1 -0 2 7 6 6 2 0 9 9 4
1 -2 -2 -4 1 3 2 -1 -0 6 -4 5 23 9 3 5 7 13 14 15 12 9 11 9 10 10 9 9 8 11 10 9 7 7 7 5 11 11 6 9 8 6 8 10 7 7 6 3 7 7 8 11 3 1 5 3 1 3 4 3 4 6 4 4 4 4 3 3 6 6 5 4 5 5 4 4 5 5 4 4 6 9 11 11 9 7 5 3 4 6 6 5 -0 0 11 10 5
6 -1 -2 -3 -2 4 5 1 8 11 -3 7 19 7 8 9 8 15 13 13 14 13 10 7 10 9 10 10 8 10 10 10 9 10 9 7 13 12 7 8 8 5 2 10 11 6 8 5 7 8 9 13 5 2 5 2 2 4 4 4 5 6 5 6 6 6 5 4 4 5 5 5 4 3 4 6 5 6 7 5 4 7 11 11 10 9 8 8 7 8 10 5 -3 1 11 8 4
6 1 2 3 -3 -2 6 6 5 9 14 20 13 3 14 19 12 12 11 11 13 18 13 7 10 9 8 8 9 11 10 11 11 12 13 10 10 12 13 6 6 10 -0 4 11 4 7 8 7 7 5 7 6 8 7 3 4 4 4 4 5 7 6 6 6 6 7 6 4 5 7 6 4 4 5 7 8 9 7 4 5 8 12 12 12 14 13 13 11 11 14 7 -1 3 8 4 3
-0 0 2 3 2 -0 6 5 -4 7 22 12 -6 -6 10 17 10 8 12 12 12 20 19 13 11 8 7 5 7 12 9 10 11 11 13 14 11 12 17 7 4 13 3 2 9 5 8 11 7 5 4 5 6 11 10 4 4 3 3 4 4 6 5 5 6 6 8 7 6 7 8 5 5 5 4 6 6 6 6 8 11 12 12 12 15 17 15 16 12 10 14 7 4 7 5 6 8
0 -3 -5 -1 7 4 -0 0 -7 -1 9 2 -9 -13 -2 7 4 9 14 9 9 15 19 16 12 8 7 5 4 7 7 8 9 9 11 14 15 13 17 15 12 14 9 9 10 7 13 14 9 7 6 7 9 11 8 5 4 2 2 4 5 6 5 6 5 6 8 8 9 9 8 7 8 6 3 5 2 5 14 17 15 12 12 14 20 24 20 17 14 15 18 11 7 7 3 7 10
8 -5 -15 -5 12 7 -2 2 -2 -7 -4 7 8 -11 -6 5 -1 7 17 10 5 9 18 18 13 10 7 7 6 7 9 8 7 8 9 10 14 17 17 17 19 17 14 14 12 10 14 13 12 14 11 11 14 11 7 7 6 4 4 5 7 6 5 5 4 7 7 7 9 9 8 8 8 8 11 14 12 15 18 14 11 12 15 18 16 18 20 19 21 23 19 13 9 7 5 8 12
9 9 -3 2 13 3 -5 3 2 -3 -6 6 17 -2 -5 6 -1 2 13 13 6 6 16 19 16 13 7 7 8 8 10 8 6 7 8 11 15 24 28 20 15 13 12 13 11 10 10 9 10 12 11 11 13 11 8 11 11 10 9 8 9 7 5 4 6 8 7 10 11 8 12 14 13 18 28 31 23 16 11 6 9 11 14 19 14 15 20 20 22 21 12 10 12 11 12 12 13
5 18 12 4 3 -5 -1 11 2 0 5 3 7 3 1 6 1 2 10 13 11 6 8 14 18 18 10 8 8 6 7 6 6 5 8 14 14 19 29 25 14 9 8 7 7 6 6 7 9 9 9 7 7 9 8 9 11 11 9 8 9 7 5 7 10 9 8 13 11 11 24 27 21 23 27 24 16 8 7 7 10 10 10 18 19 15 17 15 16 18 14 14 15 13 14 14 14
7 11 9 -2 -6 -9 1 14 -1 -5 10 -1 -7 4 9 6 0 3 7 12 17 7 0 9 18 19 13 10 8 7 8 6 6 5 5 14 17 14 19 21 17 13 9 6 5 5 5 7 9 10 10 8 5 4 6 6 6 7 7 8 7 5 5 9 10 8 10 13 11 18 30 25 18 19 15 10 8 7 10 10 10 11 10 13 15 10 11 14 15 17 17 17 18 18 17 17 18
12 10 12 4 -1 -1 -0 8 6 -0 4 -0 -3 5 6 1 2 4 2 11 23 10 -1 6 14 18 17 12 8 8 11 7 5 8 6 10 19 19 16 18 19 17 13 10 10 8 6 6 10 12 11 10 8 7 8 6 1 0 3 5 3 3 7 8 8 10 14 17 21 26 23 15 13 14 10 8 8 10 11 10 8 11 11 11 16 19 18 16 13 11 12 13 15 15 13 13 15
15 7 2 -5 -8 4 3 2 12 7 -1 5 6 4 4 -0 -0 3 -2 9 24 15 5 4 6 16 18 13 12 11 13 9 4 8 9 8 14 18 19 19 18 17 15 13 11 8 6 7 10 12 9 6 9 12 12 7 3 3 5 4 4 8 8 7 11 19 23 24 25 21 11 9 10 8 8 8 7 8 8 7 6 7 9 8 11 17 14 11 12 13 11 9 9 9 7 7 8
16 4 -6 -5 -2 12 14 -1 -1 -3 -6 3 1 -5 0 -0 0 2 -2 9 21 12 6 5 6 14 14 13 17 11 7 8 6 7 9 9 11 14 19 21 19 16 15 14 13 13 14 14 13 14 13 12 14 16 15 13 12 13 14 12 9 9 9 15 26 30 25 18 12 8 5 7 10 9 9 7 6 6 5 5 6 5 6 6 6 7 6 7 11 11 10 9 9 10 10 9 10
15 5 -10 -7 -5 -1 9 4 -4 -1 -2 -6 -9 -6 2 4 2 1 3 14 16 7 8 11 13 14 8 10 17 12 5 7 9 6 8 10 10 12 14 18 21 18 16 15 11 11 14 17 16 14 17 19 20 19 16 17 18 20 23 19 12 13 21 29 29 20 11 6 2 2 4 6 9 9 7 6 5 5 5 6 6 5 4 5 4 5 4 5 5 5 5 6 6 7 7 7 9
11 14 3 -1 -3 -13 -4 9 0 -3 -0 -6 -7 1 9 7 -2 3 20 26 11 6 15 13 7 7 6 7 14 18 12 9 8 4 7 10 7 9 9 11 16 13 14 15 11 9 13 16 16 14 15 15 16 16 15 17 21 26 27 24 23 26 27 20 10 5 4 4 4 6 7 8 9 9 6 6 6 5 6 5 4 4 4 4 3 3 3 3 3 4 3 3 4 4 4 4 5
8 20 13 1 3 2 7 20 10 -2 5 13 12 10 8 -0 -0 17 28 23 10 6 14 11 2 4 11 10 12 21 19 10 7 6 7 8 6 8 10 10 13 11 10 15 18 18 17 16 16 14 14 13 14 16 18 22 25 29 30 29 26 20 11 4 2 6 8 7 7 7 8 9 7 7 7 6 6 5 5 5 4 4 3 3 3 2 3 3 3 3 3 3 3 3 3 3 4
-2 11 12 -5 -3 8 14 20 13 6 11 15 13 11 8 -1 9 22 5 2 16 8 5 12 7 8 13 12 11 18 22 13 6 6 7 7 6 9 12 14 17 15 10 11 16 18 16 15 14 14 13 12 13 15 18 23 24 26 24 17 10 5 2 4 5 6 7 7 7 7 7 7 7 6 7 6 6 5 4 4 4 4 3 4 3 3 3 3 3 3 3 4 4 3 3 3 4
-3 10 12 2 0 -1 3 6 0 6 16 17 13 12 14 15 24 20 -9 -2 23 11 2 8 7 7 9 13 16 15 21 19 7 5 7 5 6 12 16 18 17 12 7 7 11 13 13 13 12 12 14 12 13 14 15 16 16 13 8 4 2 4 5 5 3 4 6 6 6 7 7 6 6 5 5 5 4 4 4 4 4 3 4 3 3 3 3 3 4 4 3 3 4 4 4 3 3
5 19 13 1 1 -4 -2 0 -4 5 11 6 9 9 9 15 18 9 -3 5 18 16 12 8 10 17 10 12 20 14 17 23 11 5 6 3 7 14 15 15 13 9 7 8 9 10 10 10 9 10 13 12 11 14 13 10 8 4 1 3 4 5 5 4 4 5 6 7 7 7 7 6 6 5 4 5 4 3 3 3 3 3 4 3 3 4 3 4 4 4 4 4 4 3 4 4 3
1 12 7 -12 -12 2 10 8 10 18 11 -2 1 3 2 6 4 -2 1 6 8 13 17 9 13 24 16 11 15 12 17 24 15 6 5 5 8 13 14 15 11 6 8 8 7 8 8 7 8 8 10 11 8 10 11 7 5 3 3 5 4 4 4 4 5 6 6 8 8 7 7 6 5 4 3 4 3 3 3 3 4 4 4 5 4 4 4 4 3 3 3 3 3 3 3 3 3
20 9 -0 -15 -12 6 8 10 15 8 5 9 5 -2 0 6 5 1 2 5 5 11 16 12 12 20 19 12 9 10 19 26 17 7 6 6 9 16 20 20 14 9 8 7 5 7 7 7 7 6 6 7 5 5 6 5 4 4 4 5 4 4 4 4 6 6 6 7 6 6 6 4 4 4 4 4 3 3 3 4 4 4 5 5 4 4 3 3 3 2 2 2 3 2 2 2 2
32 25 13 -2 -1 13 4 -0 8 -0 -0 12 4 -3 -0 -0 8 16 10 8 10 12 14 12 7 11 15 14 12 9 18 29 20 8 9 5 7 15 14 12 14 14 10 5 5 8 8 8 7 5 5 5 5 4 3 4 4 5 5 4 3 4 4 6 6 6 6 6 5 5 5 4 4 4 4 3 3 4 5 5 5 4 4 3 3 3 2 2 2 2 3 3 2 1 1 0 -0
17 22 21 10 7 29 23 -5 -6 -1 0 6 4 5 1 -9 4 21 18 14 12 8 12 14 8 6 7 13 18 12 16 31 21 8 10 6 7 13 10 10 12 11 8 3 4 8 7 8 8 7 7 6 6 6 5 5 5 5 5 4 5 6 6 6 6 6 5 5 4 4 4 4 3 3 3 3 4 5 5 5 4 4 3 3 3 3 3 3 3 3 3 2 1 1 1 0 0
10 2 15 28 18 20 22 5 5 7 -3 -4 3 8 5 -2 -0 12 19 13 0 -3 5 13 14 12 9 10 16 14 15 27 20 8 9 7 7 11 8 10 10 5 6 4 4 7 6 6 7 7 8 8 8 8 7 8 7 6 6 6 6 6 6 6 5 5 5 4 4 3 3 3 3 3 2 3 4 4 4 4 4 3 3 3 3 3 3 3 2 2 2 2 2 2 1 1 1
17 8 12 23 5 -11 -3 4 12 17 6 0 4 5 4 4 -1 2 11 0 -10 -3 4 6 10 13 12 8 11 15 16 22 20 9 6 6 6 9 5 6 7 5 5 5 5 5 5 5 5 5 6 6 7 7 7 7 7 7 6 6 7 6 6 5 4 5 4 3 3 3 3 3 3 4 3 4 5 4 4 4 3 3 3 3 3 2 2 2 2 2 2 2 2 2 2 1 1
19 29 19 5 -9 -11 5 7 -0 6 7 2 5 5 4 13 12 2 0 -3 -2 6 6 7 10 8 8 8 10 14 15 21 22 13 7 5 5 7 5 5 8 6 5 6 6 5 6 6 5 5 5 5 5 5 5 6 6 6 5 5 5 5 5 4 3 4 3 3 4 3 4 4 3 4 4 4 5 4 4 3 3 4 4 3 3 2 2 2 2 3 2 2 2 2 2 2 2
20 36 20 3 -5 -9 2 10 3 1 3 3 8 8 9 22 22 4 -3 3 6 3 2 10 13 8 10 11 10 15 17 18 21 18 11 6 5 6 5 6 7 5 6 7 6 6 6 6 5 5 5 5 6 5 5 5 5 5 5 4 5 4 4 4 4 4 4 4 4 4 5 5 5 5 4 5 5 4 4 3 4 4 3 3 2 2 3 3 3 3 3 3 3 3 3 3 3
30 31 5 4 12 3 1 10 6 2 10 19 19 9 1 5 8 3 4 4 1 -0 5 13 14 13 16 15 12 15 16 15 20 22 15 5 4 6 6 7 7 6 7 7 6 7 7 7 7 6 6 6 6 6 6 6 6 6 6 5 5 5 5 5 5 5 5 5 5 5 5 4 5 5 5 5 5 4 4 4 4 4 3 4 4 4 4 4 5 5 4 4 4 4 4 4 5
27 27 3 2 9 5 9 10 -2 3 18 15 6 1 -3 -4 1 5 5 0 -5 -0 12 21 18 17 21 21 18 17 14 15 21 25 21 9 2 3 6 8 7 6 7 7 6 6 4 5 6 6 7 7 7 7 7 7 7 7 7 6 6 6 6 6 6 6 6 6 5 5 5 5 5 5 5 5 5 5 5 4 5 5 6 6 6 6 6 6 6 6 5 6 5 5 6 5 5
12 28 15 3 2 3 11 7 -6 9 25 5 -11 -6 -6 -4 5 6 1 -3 -2 6 20 24 13 14 29 28 19 19 16 13 19 25 23 15 5 1 2 5 7 7 7 6 5 4 3 4 4 4 5 5 6 7 7 8 8 7 7 7 7 7 7 7 7 7 7 7 7 6 6 6 6 5 5 6 6 6 6 7 8 8 8 8 7 7 7 6 6 6 6 6 6 6 6 6 6
Height
5895 5894 5893 5892 5892 5892 5892 5891 5892 5892 5893 5893 5892 5891 5891 5890 5890 5890 5891 5890 5890 5891 5893 5895 5897 5898 5900 5901 5902 5902 5902 5903 5904 5905 5906 5907 5907 5908 5909 5909 5909 5909 5908 5908 5908 5908 5908 5909 5909 5909 5908 5908 5908 5909 5909 5909 5909 5910 5910 5911 5912 5913 5914 5915 5915 5915 5915 5915 5915 5915 5914 5914 5914 5914 5914 5914 5914 5914 5913 5913 5913 5913 5913 5912 5912 5911 5911 5910 5910 5910 5909 5909 5909 5908 5908 5908 5908
5895 5894 5893 5893 5893 5893 5892 5892 5892 5892 5893 5892 5891 5891 5891 5890 5891 5892 5892 5890 5890 5893 5895 5897 5898 5897 5899 5901 5902 5902 5903 5904 5905 5906 5906 5907 5908 5908 5909 5909 5909 5909 5909 5908 5908 5908 5909 5909 5910 5909 5909 5909 5909 5910 5910 5910 5910 5910 5911 5912 5912 5913 5914 5914 5915 5916 5916 5916 5916 5915 5915 5915 5915 5915 5915 5914 5914 5914 5913 5913 5913 5912 5912 5911 5911 5910 5910 5910 5909 5910 5909 5909 5909 5908 5907 5907 5907
5895 5894 5894 5893 5893 5893 5892 5892 5892 5892 5892 5892 5891 5891 5890 5891 5892 5894 5893 5891 5892 5895 5898 5899 5899 5899 5899 5901 5902 5903 5903 5904 5906 5907 5907 5908 5908 5908 5910 5910 5910 5910 5909 5909 5909 5909 5910 5910 5911 5910 5910 5910 5910 5911 5911 5911 5911 5911 5912 5912 5913 5914 5914 5915 5915 5915 5916 5916 5916 5916 5916 5916 5915 5915 5915 5915 5914 5914 5913 5913 5912 5912 5911 5911 5911 5910 5909 5908 5908 5908 5908 5908 5908 5908 5908 5907 5906
5895 5894 5894 5893 5894 5893 5893 5892 5892 5891 5892 5891 5891 5891 5890 5891 5892 5892 5892 5891 5892 5896 5898 5899 5901 5901 5900 5901 5902 5903 5904 5905 5906 5907 5908 5908 5909 5909 5910 5910 5910 5910 5909 5909 5909 5910 5910 5910 5911 5911 5911 5911 5911 5911 5911 5912 5912 5913 5913 5913 5914 5914 5914 5915 5915 5915 5916 5916 5916 5916 5916 5916 5916 5916 5916 5915 5915 5914 5914 5913 5912 5912 5911 5911 5911 5910 5909 5907 5906 5906 5906 5906 5906 5906 5906 5906 5905
5895 5894 5894 5895 5895 5894 5893 5892 5892 5891 5891 5891 5891 5890 5890 5890 5891 5891 5891 5891 5892 5895 5897 5898 5902 5902 5901 5902 5902 5903 5904 5905 5906 5907 5908 5908 5909 5910 5910 5910 5910 5910 5910 5909 5909 5910 5911 5911 5911 5912 5912 5912 5912 5912 5912 5912 5913 5914 5914 5914 5914 5914 5914 5914 5915 5915 5916 5916 5916 5916 5916 5916 5916 5916 5916 5915 5915 5915 5914 5913 5913 5912 5912 5911 5911 5911 5910 5908 5907 5905 5904 5904 5903 5903 5904 5904 5903
5896 5896 5896 5896 5896 5895 5894 5893 5892 5891 5891 5890 5890 5890 5889 5890 5890 5891 5892 5892 5893 5895 5895 5896 5901 5902 5901 5902 5903 5904 5905 5905 5906 5907 5908 5908 5909 5910 5911 5911 5911 5910 5910 5910 5910 5910 5911 5911 5912 5912 5913 5913 5913 5913 5913 5913 5914 5914 5915 5915 5914 5914 5914 5914 5915 5915 5916 5916 5916 5916 5916 5916 5916 5916 5915 5915 5915 5914 5914 5913 5913 5912 5911 5911 5911 5911 5910 5909 5908 5906 5904 5904 5903 5902 5902 5903 5903
5896 5897 5897 5897 5896 5895 5894 5893 5892 5891 5891 5890 5890 5890 5889 5890 5890 5890 5891 5892 5894 5895 5895 5896 5899 5901 5901 5902 5904 5904 5905 5906 5906 5907 5908 5908 5909 5910 5911 5911 5911 5911 5911 5911 5911 5911 5911 5912 5912 5913 5913 5914 5914 5915 5914 5914 5914 5915 5915 5915 5915 5914 5914 5915 5915 5915 5915 5915 5916 5916 5916 5916 5915 5915 5915 5915 5915 5914 5913 5913 5912 5911 5911 5910 5910 5910 5909 5909 5908 5907 5905 5905 5904 5904 5903 5903 5903
5897 5897 5897 5897 5896 5895 5894 5893 5893 5892 5891 5890 5890 5890 5889 5889 5889 5889 5890 5892 5894 5895 5896 5898 5899 5900 5902 5903 5904 5905 5906 5906 5906 5907 5908 5909 5909 5910 5911 5911 5911 5911 5911 5911 5911 5911 5912 5912 5913 5913 5914 5915 5915 5915 5916 5916 5915 5915 5915 5914 5914 5915 5915 5915 5915 5915 5915 5915 5915 5915 5915 5915 5915 5914 5914 5914 5914 5914 5913 5912 5911 5911 5910 5910 5909 5909 5908 5908 5907 5906 5906 5905 5905 5905 5905 5904 5903
5898 5897 5897 5897 5896 5896 5895 5894 5893 5892 5891 5890 5889 5890 5889 5888 5888 5889 5890 5892 5894 5895 5896 5898 5899 5900 5902 5903 5904 5905 5906 5907 5907 5908 5908 5909 5910 5910 5911 5912 5912 5912 5912 5912 5912 5912 5913 5913 5913 5914 5915 5915 5916 5916 5916 5917 5917 5916 5915 5915 5915 5915 5916 5916 5916 5916 5916 5915 5915 5914 5914 5914 5914 5914 5914 5914 5914 5913 5913 5912 5911 5911 5910 5910 5909 5909 5908 5907 5906 5906 5905 5905 5905 5906 5905 5904 5904
5900 5898 5897 5896 5896 5896 5895 5894 5894 5892 5891 5890 5889 5889 5889 5888 5888 5889 5891 5892 5894 5895 5896 5897 5898 5900 5901 5902 5904 5905 5906 5907 5908 5908 5909 5910 5911 5911 5912 5913 5913 5913 5912 5912 5912 5913 5913 5914 5914 5915 5916 5916 5916 5916 5916 5917 5917 5917 5916 5916 5916 5916 5916 5917 5917 5916 5916 5916 5915 5915 5914 5914 5914 5914 5914 5914 5913 5913 5912 5912 5911 5911 5910 5910 5909 5909 5908 5907 5906 5905 5905 5904 5905 5905 5905 5905 5904
5901 5900 5898 5897 5896 5896 5895 5894 5894 5893 5892 5891 5890 5890 5889 5888 5889 5889 5891 5893 5894 5895 5896 5897 5898 5899 5901 5903 5904 5905 5906 5907 5908 5909 5910 5910 5911 5912 5912 5913 5913 5913 5913 5913 5913 5913 5914 5915 5915 5915 5916 5916 5916 5916 5916 5916 5917 5917 5917 5917 5917 5917 5917 5917 5917 5917 5916 5916 5916 5915 5915 5915 5915 5914 5914 5914 5913 5913 5912 5912 5911 5911 5910 5910 5910 5909 5908 5907 5906 5906 5905 5905 5905 5905 5905 5905 5904
5902 5900 5899 5898 5897 5897 5896 5895 5894 5893 5893 5892 5891 5891 5890 5890 5890 5890 5892 5893 5894 5895 5896 5897 5898 5899 5901 5903 5904 5905 5906 5907 5908 5909 5910 5911 5911 5912 5912 5913 5913 5913 5914 5914 5914 5914 5915 5915 5916 5916 5916 5916 5916 5916 5916 5916 5916 5917 5917 5918 5918 5918 5917 5917 5917 5916 5916 5916 5916 5916 5916 5916 5915 5915 5914 5914 5913 5913 5912 5912 5911 5911 5911 5911 5910 5910 5910 5909 5907 5907 5906 5906 5905 5905 5905 5905 5905
5902 5900 5899 5898 5898 5897 5896 5896 5895 5895 5894 5893 5892 5892 5892 5892 5892 5891 5892 5893 5894 5894 5895 5896 5898 5899 5901 5903 5904 5905 5906 5907 5909 5909 5910 5911 5911 5912 5912 5913 5914 5914 5914 5914 5914 5915 5915 5916 5916 5917 5917 5917 5916 5916 5916 5916 5917 5917 5918 5918 5918 5918 5918 5917 5917 5916 5916 5916 5916 5916 5916 5916 5916 5915 5915 5914 5914 5913 5912 5912 5911 5911 5910 5911 5910 5910 5910 5909 5908 5907 5907 5907 5906 5906 5906 5905 5905
5902 5900 5899 5898 5898 5897 5897 5896 5896 5895 5895 5894 5893 5893 5894 5893 5892 5892 5892 5893 5894 5895 5896 5896 5898 5900 5901 5903 5904 5905 5906 5908 5909 5909 5910 5911 5911 5912 5913 5913 5914 5914 5915 5915 5915 5915 5916 5916 5917 5917 5917 5917 5917 5917 5917 5917 5917 5918 5918 5918 5918 5918 5918 5917 5917 5917 5916 5916 5916 5916 5916 5916 5916 5915 5915 5915 5914 5914 5913 5912 5911 5911 5910 5910 5910 5910 5909 5909 5908 5908 5907 5907 5907 5906 5906 5906 5905
5902 5901 5900 5899 5898 5898 5898 5897 5896 5895 5895 5895 5895 5894 5895 5894 5893 5892 5892 5893 5894 5895 5896 5896 5897 5900 5901 5902 5903 5905 5907 5908 5909 5909 5910 5910 5911 5912 5913 5913 5914 5914 5915 5915 5916 5916 5916 5917 5917 5918 5918 5918 5917 5917 5917 5918 5918 5918 5919 5919 5918 5918 5918 5917 5917 5917 5917 5916 5916 5916 5916 5916 5916 5915 5915 5915 5915 5915 5914 5913 5912 5911 5910 5910 5910 5910 5909 5908 5908 5908 5908 5908 5907 5907 5906 5906 5906
5902 5901 5900 5900 5899 5899 5898 5898 5896 5896 5896 5896 5896 5895 5895 5894 5893 5892 5892 5893 5895 5895 5896 5896 5897 5899 5901 5902 5903 5904 5906 5907 5909 5909 5910 5910 5911 5912 5913 5913 5914 5914 5915 5916 5916 5916 5917 5917 5918 5918 5918 5918 5918 5918 5918 5918 5919 5919 5919 5919 5919 5918 5918 5917 5917 5917 5917 5916 5916 5915 5915 5915 5915 5915 5915 5915 5915 5915 5914 5914 5913 5912 5911 5911 5910 5910 5910 5909 5908 5908 5908 5908 5908 5907 5907 5906 5906
5902 5902 5901 5901 5900 5899 5899 5898 5897 5897 5897 5896 5895 5895 5895 5895 5894 5893 5893 5894 5896 5896 5896 5896 5897 5899 5900 5901 5902 5904 5905 5906 5908 5909 5911 5911 5911 5912 5913 5913 5913 5914 5915 5916 5916 5917 5917 5917 5918 5918 5918 5918 5918 5918 5918 5919 5919 5919 5919 5919 5919 5918 5918 5917 5917 5917 5916 5916 5916 5915 5915 5915 5915 5915 5915 5915 5915 5915 5915 5914 5914 5913 5912 5912 5911 5911 5910 5910 5909 5909 5908 5908 5908 5908 5907 5907 5906
5903 5902 5902 5903 5902 5901 5900 5899 5899 5898 5898 5896 5895 5895 5895 5895 5895 5894 5894 5895 5896 5896 5896 5896 5896 5898 5899 5900 5902 5903 5904 5906 5907 5908 5910 5911 5911 5912 5912 5913 5913 5914 5915 5915 5916 5916 5917 5917 5918 5918 5918 5918 5919 5919 5919 5919 5919 5919 5919 5919 5919 5918 5918 5918 5917 5917 5916 5916 5915 5915 5915 5915 5915 5915 5915 5915 5915 5915 5914 5914 5914 5913 5913 5912 5912 5911 5911 5910 5910 5909 5908 5908 5908 5908 5908 5907 5906
5904 5903 5903 5904 5903 5902 5901 5900 5900 5899 5898 5897 5897 5896 5896 5896 5895 5895 5894 5895 5895 5896 5896 5896 5896 5897 5897 5898 5900 5902 5904 5905 5906 5907 5908 5909 5910 5911 5912 5912 5913 5913 5914 5915 5916 5916 5917 5917 5918 5918 5918 5919 5919 5919 5919 5919 5919 5919 5919 5920 5919 5919 5919 5918 5918 5917 5917 5916 5916 5915 5915 5915 5915 5915 5915 5915 5915 5914 5914 5914 5914 5913 5913 5912 5912 5912 5912 5911 5910 5910 5909 5908 5908 5908 5908 5907 5907
5905 5904 5904 5905 5904 5902 5902 5901 5901 5900 5899 5899 5898 5897 5897 5897 5896 5896 5896 5895 5895 5896 5896 5895 5895 5895 5896 5897 5899 5901 5903 5904 5905 5906 5907 5908 5909 5910 5911 5911 5912 5913 5913 5914 5915 5916 5916 5917 5917 5918 5919 5919 5919 5920 5920 5920 5920 5920 5920 5920 5920 5919 5919 5919 5918 5918 5917 5917 5917 5916 5916 5916 5915 5915 5915 5915 5914 5914 5914 5913 5913 5913 5913 5912 5912 5912 5912 5911 5911 5910 5910 5909 5908 5908 5908 5908 5907
5905 5905 5905 5905 5904 5903 5903 5902 5901 5901 5901 5900 5900 5899 5898 5897 5897 5897 5897 5896 5896 5896 5895 5894 5894 5894 5895 5896 5897 5899 5901 5903 5904 5905 5906 5907 5907 5908 5909 5910 5911 5912 5913 5913 5914 5915 5915 5916 5917 5918 5918 5919 5919 5920 5920 5920 5920 5920 5920 5920 5920 5920 5919 5919 5919 5918 5918 5918 5917 5917 5916 5916 5916 5915 5914 5914 5914 5914 5914 5913 5912 5912 5913 5912 5912 5912 5912 5912 5911 5910 5910 5910 5909 5909 5908 5908 5908
5906 5906 5907 5906 5904 5905 5905 5904 5903 5902 5902 5901 5901 5900 5899 5898 5898 5897 5897 5897 5897 5896 5895 5894 5893 5893 5894 5896 5897 5898 5900 5902 5903 5904 5906 5907 5907 5907 5908 5909 5910 5912 5912 5913 5913 5914 5915 5916 5916 5917 5918 5918 5919 5919 5920 5920 5920 5920 5920 5920 5920 5920 5920 5919 5919 5918 5918 5917 5917 5917 5917 5916 5916 5916 5915 5914 5913 5913 5914 5913 5912 5912 5912 5912 5912 5912 5912 5911 5911 5911 5910 5910 5910 5909 5909 5909 5908
5908 5907 5907 5906 5906 5906 5906 5905 5904 5904 5903 5902 5901 5900 5900 5900 5899 5898 5897 5897 5897 5897 5896 5895 5894 5894 5894 5896 5897 5898 5900 5901 5903 5903 5905 5906 5906 5906 5907 5908 5909 5910 5911 5912 5913 5913 5914 5915 5916 5916 5917 5918 5918 5919 5919 5920 5920 5920 5920 5920 5920 5920 5919 5919 5919 5918 5918 5917 5917 5916 5916 5915 5915 5915 5915 5914 5914 5913 5913 5914 5913 5912 5912 5911 5911 5911 5911 5911 5911 5911 5911 5910 5910 5909 5909 5909 5909
5910 5909 5907 5907 5907 5907 5907 5905 5905 5904 5903 5902 5901 5900 5900 5900 5900 5899 5899 5898 5898 5897 5897 5896 5896 5895 5895 5897 5898 5899 5900 5901 5902 5903 5904 5905 5906 5906 5907 5907 5908 5909 5910 5911 5912 5913 5913 5914 5915 5915 5916 5917 5917 5918 5918 5919 5919 5919 5919 5919 5919 5919 5919 5919 5918 5918 5918 5917 5917 5916 5915 5914 5914 5914 5914 5914 5913 5913 5913 5913 5913 5912 5912 5911 5910 5910 5910 5910 5911 5911 5911 5910 5910 5910 5909 5909 5909
5911 5911 5909 5908 5908 5908 5907 5906 5906 5905 5903 5902 5902 5901 5901 5900 5899 5899 5898 5898 5898 5898 5898 5897 5897 5896 5896 5896 5898 5899 5899 5900 5901 5902 5903 5904 5905 5906 5906 5907 5907 5908 5909 5910 5911 5912 5912 5913 5914 5914 5915 5916 5917 5917 5918 5918 5918 5918 5918 5918 5918 5918 5918 5918 5918 5918 5917 5917 5916 5916 5915 5915 5915 5914 5914 5913 5913 5912 5912 5912 5913 5912 5911 5910 5910 5909 5909 5909 5910 5910 5911 5911 5910 5910 5910 5909 5908
5911 5912 5911 5910 5909 5909 5908 5907 5906 5905 5904 5904 5903 5902 5901 5901 5900 5898 5898 5898 5898 5898 5898 5898 5898 5898 5897 5897 5897 5897 5898 5899 5900 5901 5902 5902 5904 5905 5905 5906 5906 5907 5909 5910 5910 5911 5912 5912 5912 5913 5914 5916 5916 5916 5917 5917 5917 5917 5917 5917 5917 5918 5917 5917 5917 5917 5917 5916 5916 5915 5915 5915 5916 5915 5915 5914 5913 5913 5911 5911 5911 5911 5911 5910 5909 5909 5909 5909 5909 5909 5910 5911 5911 5910 5910 5909 5908
5911 5911 5911 5911 5911 5911 5910 5909 5907 5906 5905 5904 5904 5903 5902 5902 5901 5899 5898 5899 5899 5899 5898 5898 5899 5899 5898 5898 5897 5897 5897 5898 5899 5900 5901 5902 5903 5903 5904 5905 5906 5907 5908 5909 5909 5909 5910 5910 5911 5914 5914 5915 5915 5915 5916 5915 5915 5915 5916 5916 5916 5916 5916 5916 5916 5916 5915 5915 5915 5915 5915 5915 5915 5915 5915 5914 5914 5913 5912 5911 5911 5911 5911 5910 5909 5908 5908 5908 5908 5908 5909 5910 5910 5910 5910 5909 5908
5911 5911 5911 5911 5912 5912 5911 5909 5908 5906 5906 5905 5904 5903 5903 5903 5903 5902 5900 5899 5899 5899 5899 5898 5898 5898 5899 5899 5898 5898 5897 5898 5898 5899 5899 5901 5901 5901 5902 5903 5904 5906 5906 5907 5908 5908 5908 5909 5912 5914 5913 5913 5913 5913 5914 5915 5914 5914 5914 5915 5915 5915 5915 5915 5916 5915 5915 5914 5914 5914 5913 5914 5914 5914 5915 5914 5913 5913 5912 5911 5911 5910 5910 5910 5909 5908 5908 5907 5908 5907 5907 5908 5909 5910 5909 5909 5909
5911 5911 5912 5911 5911 5912 5911 5910 5909 5907 5906 5906 5905 5904 5904 5905 5905 5904 5902 5900 5899 5899 5899 5899 5898 5898 5899 5899 5899 5899 5898 5898 5898 5898 5898 5898 5899 5900 5900 5901 5902 5905 5905 5905 5906 5907 5907 5909 5911 5912 5911 5912 5912 5912 5913 5914 5914 5913 5913 5913 5914 5914 5915 5915 5915 5915 5915 5915 5914 5913 5912 5912 5912 5912 5913 5913 5912 5911 5911 5911 5910 5910 5909 5909 5909 5908 5907 5907 5907 5907 5907 5907 5908 5908 5908 5909 5909
5910 5911 5912 5912 5911 5911 5911 5911 5910 5908 5907 5907 5906 5906 5906 5906 5906 5905 5904 5902 5900 5899 5899 5899 5899 5899 5899 5899 5899 5899 5899 5899 5898 5898 5897 5897 5898 5898 5898 5899 5900 5902 5903 5904 5905 5905 5906 5908 5909 5909 5910 5911 5911 5911 5912 5913 5913 5913 5912 5912 5913 5913 5914 5914 5914 5915 5915 5914 5913 5913 5912 5911 5911 5911 5911 5911 5910 5910 5910 5909 5909 5909 5908 5908 5908 5907 5906 5906 5906 5906 5906 5906 5906 5907 5907 5908 5909
5910 5911 5912 5912 5912 5912 5911 5911 5911 5910 5908 5908 5907 5907 5907 5906 5906 5906 5906 5904 5902 5900 5899 5899 5899 5899 5899 5899 5899 5899 5899 5898 5898 5898 5897 5897 5898 5898 5898 5897 5898 5900 5901 5902 5903 5903 5905 5906 5906 5907 5909 5909 5909 5910 5910 5911 5911 5911 5911 5911 5911 5912 5912 5913 5913 5913 5913 5913 5912 5912 5911 5911 5910 5910 5910 5910 5909 5909 5908 5908 5907 5907 5907 5907 5907 5906 5906 5905 5904 5904 5905 5905 5905 5906 5906 5907 5908
5909 5910 5912 5912 5912 5912 5912 5912 5912 5911 5909 5909 5908 5908 5907 5906 5906 5906 5905 5905 5903 5902 5900 5899 5899 5899 5898 5898 5898 5898 5898 5897 5897 5897 5896 5896 5897 5897 5897 5896 5896 5897 5899 5901 5902 5903 5904 5905 5905 5906 5907 5907 5907 5907 5908 5909 5909 5909 5909 5910 5910 5910 5910 5910 5911 5911 5912 5912 5911 5910 5910 5910 5910 5909 5909 5908 5908 5908 5907 5907 5906 5905 5905 5905 5905 5905 5904 5903 5903 5902 5903 5904 5904 5905 5905 5905 5906
5909 5910 5912 5912 5912 5911 5911 5912 5913 5912 5911 5910 5909 5908 5907 5906 5905 5904 5904 5904 5904 5903 5901 5900 5899 5898 5898 5897 5897 5897 5897 5896 5896 5896 5895 5895 5895 5896 5896 5895 5896 5896 5897 5899 5901 5902 5903 5903 5903 5904 5904 5905 5905 5906 5906 5907 5907 5907 5907 5908 5908 5909 5909 5909 5909 5909 5910 5910 5910 5909 5908 5908 5908 5908 5907 5907 5906 5906 5906 5906 5905 5904 5904 5903 5903 5903 5902 5901 5901 5901 5902 5903 5904 5904 5905 5905 5905
5909 5910 5912 5913 5912 5911 5911 5912 5913 5913 5912 5911 5910 5908 5908 5906 5905 5903 5903 5903 5903 5903 5902 5900 5899 5898 5897 5896 5896 5896 5896 5895 5895 5894 5894 5893 5893 5895 5895 5895 5896 5896 5896 5899 5900 5900 5901 5901 5902 5901 5902 5903 5903 5904 5904 5905 5905 5905 5905 5906 5907 5907 5908 5908 5907 5907 5908 5908 5908 5907 5907 5907 5907 5907 5906 5906 5905 5905 5905 5905 5903 5903 5903 5902 5902 5901 5900 5899 5899 5900 5900 5901 5902 5903 5903 5904 5904
5909 5911 5913 5913 5913 5912 5911 5912 5913 5912 5912 5911 5910 5909 5908 5907 5905 5904 5903 5902 5902 5902 5902 5901 5899 5898 5898 5896 5895 5895 5894 5894 5893 5892 5892 5891 5892 5893 5895 5896 5896 5895 5896 5897 5899 5898 5898 5899 5900 5899 5899 5900 5901 5902 5902 5903 5903 5904 5904 5905 5905 5906 5906 5906 5906 5906 5906 5906 5906 5905 5905 5905 5905 5905 5904 5904 5904 5904 5904 5904 5902 5901 5901 5902 5901 5900 5899 5898 5898 5898 5898 5899 5901 5902 5902 5903 5903
5909 5910 5912 5913 5913 5912 5912 5912 5912 5912 5911 5910 5910 5909 5908 5907 5906 5905 5904 5903 5902 5902 5901 5900 5900 5899 5898 5897 5895 5894 5894 5893 5892 5891 5890 5890 5890 5891 5893 5894 5893 5892 5893 5895 5896 5895 5895 5896 5897 5897 5898 5898 5899 5900 5900 5901 5902 5902 5902 5903 5904 5904 5904 5904 5904 5904 5905 5905 5904 5903 5903 5903 5904 5903 5902 5903 5903 5903 5903 5903 5902 5901 5901 5900 5899 5899 5898 5898 5897 5897 5898 5899 5900 5900 5901 5901 5901
5907 5908 5911 5913 5913 5911 5911 5911 5911 5911 5910 5910 5909 5909 5908 5907 5906 5904 5903 5902 5902 5902 5901 5900 5899 5899 5898 5897 5896 5894 5893 5892 5891 5891 5890 5890 5890 5889 5890 5889 5888 5889 5891 5892 5892 5892 5892 5892 5893 5895 5896 5896 5897 5897 5898 5899 5899 5900 5901 5901 5902 5902 5902 5903 5903 5903 5903 5903 5903 5902 5901 5902 5902 5902 5902 5902 5903 5903 5903 5902 5901 5901 5901 5900 5898 5898 5898 5898 5899 5899 5899 5899 5900 5900 5901 5901 5901
5906 5907 5909 5912 5913 5911 5910 5910 5910 5910 5909 5909 5909 5908 5908 5907 5906 5904 5903 5902 5902 5901 5901 5900 5899 5898 5897 5896 5895 5894 5892 5892 5891 5891 5891 5889 5888 5887 5887 5887 5886 5888 5890 5890 5890 5890 5890 5891 5891 5892 5893 5894 5895 5895 5896 5896 5897 5898 5899 5900 5900 5901 5901 5902 5902 5902 5902 5902 5902 5901 5901 5901 5902 5902 5902 5902 5903 5903 5903 5902 5901 5901 5901 5901 5899 5898 5898 5898 5900 5901 5901 5900 5900 5900 5900 5900 5900
5905 5905 5907 5910 5911 5910 5908 5908 5909 5909 5908 5908 5908 5908 5907 5906 5905 5904 5903 5902 5901 5901 5900 5899 5899 5897 5896 5895 5894 5893 5892 5891 5891 5891 5891 5889 5888 5886 5886 5887 5887 5888 5888 5888 5889 5889 5889 5889 5890 5891 5891 5892 5893 5893 5894 5894 5895 5896 5897 5898 5899 5899 5900 5900 5901 5901 5901 5901 5901 5901 5901 5902 5902 5903 5903 5903 5903 5903 5903 5902 5902 5902 5902 5902 5900 5898 5897 5898 5899 5901 5901 5901 5900 5900 5900 5899 5899
5905 5905 5906 5908 5910 5910 5908 5907 5908 5908 5908 5908 5907 5907 5906 5906 5905 5904 5903 5902 5900 5899 5899 5898 5898 5897 5896 5894 5893 5892 5891 5891 5892 5892 5891 5889 5888 5887 5886 5887 5887 5888 5888 5887 5888 5888 5888 5887 5888 5889 5890 5890 5891 5891 5892 5892 5893 5894 5895 5896 5897 5898 5899 5899 5900 5900 5900 5901 5901 5901 5902 5902 5903 5903 5903 5904 5904 5904 5903 5903 5902 5903 5904 5904 5902 5899 5898 5897 5897 5899 5900 5901 5901 5901 5900 5900 5900
5906 5905 5906 5907 5909 5910 5910 5908 5908 5908 5908 5907 5906 5906 5906 5905 5905 5904 5903 5902 5900 5899 5898 5898 5897 5896 5895 5894 5893 5892 5891 5892 5892 5892 5891 5889 5889 5888 5888 5887 5888 5888 5888 5888 5888 5888 5887 5887 5887 5888 5888 5889 5889 5890 5890 5891 5891 5892 5892 5894 5895 5897 5898 5899 5899 5899 5900 5900 5901 5902 5902 5903 5903 5903 5904 5904 5905 5904 5903 5903 5904 5904 5904 5904 5903 5901 5899 5898 5897 5898 5900 5901 5901 5901 5901 5901 5901
5907 5907 5907 5907 5908 5910 5910 5907 5907 5907 5907 5906 5906 5907 5907 5905 5905 5904 5903 5902 5900 5898 5898 5897 5896 5895 5894 5893 5892 5892 5891 5891 5892 5891 5890 5889 5889 5889 5888 5888 5888 5889 5889 5889 5888 5888 5887 5887 5887 5887 5887 5888 5888 5888 5889 5889 5889 5889 5890 5892 5894 5896 5897 5898 5899 5899 5900 5901 5902 5902 5902 5903 5904 5904 5904 5905 5905 5904 5904 5905 5905 5905 5905 5905 5904 5902 5901 5900 5899 5899 5900 5901 5901 5902 5902 5902 5902
5905 5907 5907 5908 5909 5910 5910 5907 5906 5907 5906 5906 5906 5907 5906 5905 5905 5904 5903 5902 5900 5897 5896 5895 5895 5894 5894 5892 5891 5891 5891 5891 5891 5891 5890 5889 5889 5889 5888 5888 5887 5888 5889 5890 5889 5888 5887 5887 5887 5887 5887 5887 5887 5887 5887 5887 5887 5888 5889 5891 5893 5895 5896 5898 5899 5900 5901 5902 5902 5903 5903 5904 5904 5905 5905 5905 5905 5905 5905 5906 5905 5905 5905 5905 5904 5903 5902 5901 5901 5901 5901 5901 5901 5902 5903 5902 5902
5902 5905 5907 5909 5910 5910 5910 5908 5907 5907 5907 5907 5907 5906 5905 5904 5904 5904 5903 5901 5899 5896 5895 5894 5893 5893 5893 5892 5891 5890 5890 5890 5890 5891 5890 5890 5890 5889 5889 5888 5887 5887 5888 5889 5890 5890 5888 5887 5887 5887 5887 5887 5886 5886 5886 5886 5887 5887 5888 5890 5893 5895 5897 5898 5900 5901 5901 5902 5903 5903 5904 5905 5905 5906 5906 5906 5906 5906 5906 5906 5906 5906 5906 5905 5904 5904 5903 5902 5902 5902 5901 5901 5902 5902 5903 5902 5902
5901 5904 5907 5909 5909 5909 5909 5909 5908 5908 5907 5907 5907 5905 5904 5903 5903 5903 5902 5900 5898 5895 5894 5894 5893 5892 5892 5891 5890 5889 5890 5890 5890 5890 5890 5890 5890 5889 5889 5889 5889 5889 5889 5889 5890 5890 5889 5888 5887 5887 5887 5887 5886 5886 5886 5887 5887 5888 5889 5891 5894 5896 5898 5899 5900 5901 5902 5902 5903 5904 5904 5905 5906 5906 5906 5907 5907 5907 5907 5906 5906 5906 5905 5905 5904 5904 5903 5903 5902 5902 5901 5901 5902 5902 5902 5902 5902
5900 5903 5905 5906 5907 5907 5908 5909 5909 5908 5907 5906 5906 5905 5904 5903 5903 5902 5901 5899 5897 5895 5894 5893 5893 5892 5891 5891 5889 5888 5889 5890 5890 5890 5889 5889 5890 5890 5890 5890 5889 5889 5889 5890 5890 5890 5890 5889 5888 5888 5887 5887 5887 5887 5887 5888 5889 5890 5891 5893 5895 5896 5898 5899 5900 5901 5902 5902 5903 5904 5905 5905 5906 5906 5906 5907 5907 5906 5906 5906 5906 5906 5905 5904 5904 5903 5903 5903 5902 5902 5901 5901 5901 5902 5902 5902 5901
5900 5902 5903 5904 5905 5905 5906 5907 5907 5907 5906 5906 5905 5904 5904 5903 5902 5902 5900 5898 5897 5895 5894 5893 5893 5891 5890 5890 5889 5887 5888 5889 5889 5890 5889 5889 5890 5891 5891 5891 5891 5890 5889 5890 5891 5890 5890 5890 5890 5889 5888 5888 5887 5888 5889 5889 5890 5891 5893 5894 5896 5897 5898 5899 5900 5900 5901 5902 5903 5904 5904 5905 5906 5906 5906 5906 5906 5906 5905 5905 5905 5905 5904 5904 5904 5903 5903 5902 5902 5901 5901 5901 5901 5901 5901 5901 5900
5899 5900 5902 5903 5904 5904 5905 5906 5906 5906 5906 5905 5904 5904 5903 5902 5902 5901 5899 5898 5897 5896 5895 5894 5893 5891 5889 5888 5888 5886 5886 5888 5889 5889 5889 5890 5891 5891 5891 5893 5893 5892 5891 5890 5891 5891 5890 5890 5891 5891 5890 5889 5889 5889 5890 5891 5892 5893 5894 5895 5896 5897 5898 5899 5899 5900 5901 5902 5903 5903 5904 5904 5905 5905 5905 5905 5905 5905 5904 5904 5904 5904 5904 5904 5903 5903 5902 5902 5901 5900 5900 5900 5900 5900 5900 5899 5899
5898 5899 5901 5902 5902 5903 5904 5905 5905 5905 5905 5904 5903 5903 5902 5902 5902 5900 5899 5898 5897 5896 5894 5893 5892 5890 5888 5888 5887 5886 5885 5887 5888 5889 5889 5890 5891 5892 5892 5893 5894 5894 5892 5891 5891 5891 5891 5890 5891 5892 5891 5891 5891 5891 5891 5891 5892 5893 5894 5895 5896 5897 5898 5898 5899 5900 5900 5901 5902 5902 5903 5904 5904 5904 5904 5904 5903 5903 5903 5903 5903 5903 5903 5903 5903 5902 5902 5901 5900 5899 5899 5899 5898 5898 5898 5898 5898
5896 5897 5899 5900 5900 5901 5902 5903 5903 5903 5904 5904 5902 5902 5902 5902 5901 5900 5899 5899 5897 5895 5893 5891 5890 5889 5888 5887 5886 5885 5885 5886 5887 5888 5889 5890 5891 5892 5893 5893 5894 5894 5894 5892 5892 5892 5892 5891 5892 5892 5892 5892 5892 5892 5892 5892 5893 5894 5894 5895 5896 5897 5897 5898 5898 5899 5900 5900 5901 5902 5902 5902 5903 5903 5903 5902 5902 5902 5902 5902 5902 5902 5902 5901 5901 5900 5900 5899 5898 5898 5897 5897 5897 5897 5896 5896 5896
5895 5896 5897 5898 5899 5900 5901 5902 5903 5902 5902 5902 5901 5901 5901 5901 5900 5900 5899 5898 5896 5894 5893 5891 5890 5889 5888 5887 5886 5885 5884 5885 5886 5887 5888 5889 5890 5892 5893 5893 5894 5894 5894 5893 5893 5893 5893 5893 5893 5893 5893 5892 5892 5892 5892 5892 5893 5894 5894 5895 5895 5896 5896 5897 5898 5898 5899 5899 5900 5900 5901 5901 5902 5902 5901 5900 5900 5900 5900 5900 5900 5899 5899 5899 5899 5898 5898 5897 5897 5896 5896 5895 5895 5894 5894 5893 5893
5894 5895 5896 5897 5898 5900 5901 5902 5902 5902 5901 5900 5900 5900 5900 5900 5900 5900 5898 5896 5895 5894 5893 5892 5890 5889 5888 5886 5885 5885 5884 5885 5886 5887 5888 5889 5890 5891 5892 5893 5893 5893 5894 5893 5893 5893 5893 5893 5893 5893 5893 5893 5893 5893 5893 5893 5893 5894 5894 5894 5895 5895 5896 5896 5897 5897 5898 5898 5898 5899 5899 5900 5900 5899 5898 5898 5899 5899 5898 5898 5897 5897 5897 5896 5896 5896 5895 5895 5894 5894 5893 5893 5893 5892 5892 5891 5890
5892 5893 5895 5897 5897 5898 5899 5900 5901 5901 5900 5898 5898 5899 5899 5899 5900 5899 5897 5895 5895 5894 5893 5891 5890 5889 5888 5887 5885 5884 5884 5884 5885 5886 5887 5888 5889 5890 5891 5892 5893 5893 5893 5894 5894 5894 5894 5893 5893 5893 5893 5893 5893 5893 5893 5893 5893 5893 5894 5894 5894 5895 5895 5895 5896 5896 5896 5897 5897 5897 5898 5898 5897 5897 5896 5896 5897 5897 5896 5896 5895 5895 5894 5894 5894 5893 5892 5892 5891 5891 5891 5890 5890 5890 5889 5888 5887
5890 5891 5894 5895 5895 5895 5895 5897 5898 5899 5898 5897 5897 5898 5898 5899 5899 5898 5896 5895 5894 5893 5892 5891 5889 5889 5888 5886 5885 5884 5883 5884 5884 5885 5887 5888 5889 5890 5890 5891 5892 5892 5893 5893 5894 5894 5894 5893 5893 5893 5893 5893 5893 5893 5893 5893 5893 5893 5893 5893 5894 5894 5894 5895 5895 5895 5895 5895 5896 5896 5895 5895 5895 5895 5895 5895 5895 5895 5894 5893 5893 5893 5892 5892 5890 5890 5889 5888 5888 5887 5887 5887 5887 5886 5886 5885 5884
5889 5890 5891 5892 5892 5893 5893 5894 5896 5897 5897 5897 5896 5897 5898 5899 5898 5897 5895 5894 5893 5892 5891 5890 5888 5888 5887 5885 5884 5883 5882 5883 5884 5885 5887 5888 5889 5889 5890 5891 5892 5892 5893 5893 5893 5893 5893 5893 5892 5892 5892 5892 5892 5892 5892 5892 5892 5892 5892 5893 5893 5893 5893 5894 5894 5894 5894 5894 5894 5894 5893 5893 5893 5893 5892 5892 5893 5892 5891 5890 5890 5890 5889 5888 5887 5887 5886 5885 5885 5884 5883 5883 5882 5882 5881 5881 5880
5887 5887 5888 5889 5891 5892 5892 5893 5894 5896 5896 5896 5895 5896 5897 5898 5897 5896 5895 5893 5892 5891 5890 5889 5888 5886 5885 5884 5882 5882 5882 5882 5883 5884 5886 5888 5889 5889 5890 5891 5891 5892 5892 5893 5893 5892 5892 5892 5892 5891 5891 5891 5891 5891 5891 5891 5891 5891 5892 5892 5892 5892 5892 5892 5892 5892 5892 5892 5892 5892 5891 5891 5891 5890 5890 5889 5889 5889 5888 5888 5887 5886 5886 5885 5884 5883 5883 5882 5882 5881 5880 5879 5878 5877 5876 5876 5875
5886 5886 5887 5888 5889 5890 5891 5892 5894 5895 5895 5895 5894 5895 5896 5896 5896 5895 5894 5893 5892 5891 5890 5889 5887 5885 5884 5883 5882 5882 5882 5882 5883 5884 5886 5887 5888 5889 5890 5890 5891 5891 5892 5892 5892 5892 5891 5891 5891 5891 5891 5891 5890 5890 5890 5890 5890 5890 5890 5891 5891 5891 5891 5890 5890 5890 5890 5889 5889 5889 5889 5888 5888 5887 5887 5887 5886 5886 5885 5884 5884 5883 5882 5881 5881 5880 5879 5879 5878 5877 5876 5875 5874 5873 5872 5871 5870
5885 5886 5887 5888 5889 5890 5890 5892 5893 5894 5894 5894 5894 5894 5895 5895 5895 5894 5893 5892 5892 5891 5891 5889 5887 5886 5884 5884 5883 5882 5882 5883 5883 5884 5885 5887 5887 5889 5890 5890 5890 5890 5891 5891 5891 5891 5890 5890 5890 5890 5890 5890 5890 5889 5889 5889 5889 5889 5889 5889 5889 5889 5889 5888 5888 5888 5888 5887 5887 5886 5886 5886 5885 5884 5884 5883 5883 5882 5881 5881 5880 5879 5879 5878 5877 5876 5875 5874 5873 5873 5872 5871 5870 5869 5868 5866 5865